| time (UTC) | temp F | wind direction | speed MPH | gust MPH | rain 1hr in | rain 24hr in | rain mn in | humidity % | barometer mb |
| 20260503054510 | 58 | 262 | 5.0 | 9.0 | 0.00 | 0.00 | 0.00 | 73 | 1014.4 |
| 20260503053009 | 57 | 218 | 5.0 | 9.0 | 0.00 | 0.00 | 0.00 | 74 | 1014.3 |
| 20260503051503 | 57 | 203 | 4.0 | 7.0 | 0.00 | 0.00 | 0.00 | 75 | 1014.3 |
| 20260503050001 | 56 | 235 | 3.0 | 8.0 | 0.00 | 0.00 | 0.00 | 77 | 1014.2 |
| 20260503044626 | 54 | 263 | 4.0 | 6.0 | 0.00 | 0.00 | 0.00 | 80 | 1014.3 |
| 20260503043058 | 53 | 191 | 2.0 | 4.0 | 0.00 | 0.00 | 0.00 | 81 | 1014.3 |
| 20260503041556 | 53 | 235 | 1.0 | 3.0 | 0.00 | 0.00 | 0.00 | 79 | 1014.2 |
| 20260503040058 | 53 | 277 | 1.0 | 4.0 | 0.00 | 0.00 | 0.00 | 79 | 1014.3 |
| 20260503034557 | 52 | 284 | 3.0 | 4.0 | 0.00 | 0.00 | 0.00 | 81 | 1014.2 |
| 20260503033052 | 52 | 201 | 2.0 | 4.0 | 0.00 | 0.00 | 0.00 | 82 | 1014.3 |
| 20260503031550 | 52 | 190 | 0.0 | 0.0 | 0.00 | 0.00 | 0.00 | 82 | 1014.2 |
| 20260503024555 | 51 | 189 | 1.0 | 4.0 | 0.00 | 0.00 | 0.00 | 82 | 1014.6 |
| 20260503023048 | 52 | 267 | 1.0 | 4.0 | 0.00 | 0.00 | 0.00 | 79 | 1014.7 |
| 20260503021542 | 52 | 241 | 2.0 | 3.0 | 0.00 | 0.00 | 0.00 | 79 | 1014.9 |
| 20260503020039 | 54 | 241 | 3.0 | 4.0 | 0.00 | 0.00 | 0.00 | 76 | 1015.0 |
| 20260503014543 | 55 | 279 | 2.0 | 4.0 | 0.00 | 0.00 | 0.00 | 75 | 1015.1 |
| 20260503013034 | 57 | 232 | 0.0 | 0.0 | 0.00 | 0.00 | 0.00 | 72 | 1015.1 |
| 20260503011534 | 58 | 232 | 0.0 | 4.0 | 0.00 | 0.00 | 0.00 | 70 | 1015.1 |
| 20260503010033 | 58 | 240 | 3.0 | 5.0 | 0.00 | 0.00 | 0.00 | 71 | 1015.2 |
| 20260503004530 | 57 | 205 | 4.0 | 7.0 | 0.00 | 0.00 | 0.00 | 74 | 1015.4 |
| 20260503003033 | 57 | 216 | 4.0 | 6.0 | 0.00 | 0.00 | 0.00 | 75 | 1015.4 |
| 20260503001527 | 58 | 232 | 5.0 | 6.0 | 0.00 | 0.00 | 0.00 | 76 | 1015.6 |
| 20260503000030 | 56 | 228 | 4.0 | 7.0 | 0.00 | 0.00 | 0.00 | 76 | 1015.7 |
| 20260502234545 | 56 | 237 | 3.0 | 5.0 | 0.00 | 0.00 | 0.00 | 76 | 1015.7 |
| 20260502233022 | 56 | 238 | 3.0 | 5.0 | 0.00 | 0.00 | 0.00 | 77 | 1015.7 |
| 20260502231524 | 57 | 225 | 4.0 | 6.0 | 0.00 | 0.00 | 0.00 | 75 | 1015.8 |
| 20260502230016 | 60 | 241 | 3.0 | 7.0 | 0.00 | 0.00 | 0.00 | 71 | 1015.7 |
| 20260502224512 | 60 | 266 | 4.0 | 7.0 | 0.00 | 0.00 | 0.00 | 72 | 1015.9 |
| 20260502223027 | 59 | 267 | 4.0 | 8.0 | 0.00 | 0.00 | 0.00 | 75 | 1015.8 |
| 20260502221507 | 59 | 253 | 4.0 | 7.0 | 0.00 | 0.00 | 0.00 | 75 | 1016.0 |
| 20260502220006 | 58 | 247 | 5.0 | 7.0 | 0.00 | 0.00 | 0.00 | 76 | 1015.8 |
| 20260502214504 | 58 | 240 | 3.0 | 4.0 | 0.00 | 0.00 | 0.00 | 77 | 1015.9 |
| 20260502213004 | 58 | 220 | 0.0 | 3.0 | 0.00 | 0.00 | 0.00 | 76 | 1015.8 |
| 20260502211503 | 58 | 220 | 3.0 | 5.0 | 0.00 | 0.00 | 0.00 | 73 | 1015.7 |
| 20260502210003 | 60 | 239 | 2.0 | 3.0 | 0.00 | 0.00 | 0.00 | 68 | 1015.7 |
| 20260502204503 | 62 | 241 | 0.0 | 2.0 | 0.00 | 0.00 | 0.00 | 65 | 1015.9 |
| 20260502203002 | 63 | 241 | 4.0 | 8.0 | 0.00 | 0.00 | 0.00 | 63 | 1015.7 |
| 20260502201501 | 65 | 237 | 4.0 | 9.0 | 0.00 | 0.00 | 0.00 | 60 | 1015.6 |
| 20260502200001 | 65 | 247 | 6.0 | 10.0 | 0.00 | 0.00 | 0.00 | 59 | 1015.8 |
| 20260502194601 | 64 | 246 | 5.0 | 9.0 | 0.00 | 0.00 | 0.00 | 61 | 1015.7 |
| 20260502193100 | 62 | 233 | 6.0 | 9.0 | 0.00 | 0.00 | 0.00 | 65 | 1015.7 |
| 20260502191603 | 61 | 206 | 2.0 | 4.0 | 0.00 | 0.00 | 0.00 | 70 | 1015.6 |
| 20260502190059 | 60 | 205 | 3.0 | 5.0 | 0.00 | 0.00 | 0.00 | 69 | 1015.6 |
| 20260502184558 | 61 | 204 | 2.0 | 5.0 | 0.00 | 0.00 | 0.00 | 68 | 1015.3 |
| 20260502183107 | 62 | 203 | 1.0 | 3.0 | 0.00 | 0.00 | 0.00 | 67 | 1015.3 |
| 20260502181558 | 63 | 209 | 3.0 | 4.0 | 0.00 | 0.00 | 0.00 | 65 | 1015.3 |
| 20260502163105 | 74 | 111 | 0.0 | 4.0 | 0.00 | 0.00 | 0.00 | 45 | 1015.6 |
| 20260502161559 | 74 | 86 | 1.0 | 4.0 | 0.00 | 0.00 | 0.00 | 45 | 1015.8 |
| 20260502151540 | 75 | 90 | 0.0 | 4.0 | 0.00 | 0.00 | 0.00 | 46 | 1016.5 |
| 20260502123013 | 73 | 58 | 4.0 | 8.0 | 0.00 | 0.00 | 0.00 | 51 | 1018.9 |
| 20260502121511 | 72 | 68 | 1.0 | 8.0 | 0.00 | 0.00 | 0.00 | 52 | 1019.0 |
| 20260502114506 | 71 | 8 | 3.0 | 8.0 | 0.00 | 0.00 | 0.00 | 54 | 1019.6 |
| 20260502113005 | 71 | 75 | 3.0 | 8.0 | 0.00 | 0.00 | 0.00 | 55 | 1019.9 |
| 20260502111502 | 72 | 47 | 5.0 | 8.0 | 0.00 | 0.00 | 0.00 | 56 | 1020.1 |
| 20260502110059 | 71 | 30 | 1.0 | 6.0 | 0.00 | 0.00 | 0.00 | 56 | 1020.4 |
| 20260502104557 | 71 | 284 | 2.0 | 6.0 | 0.00 | 0.00 | 0.00 | 59 | 1020.6 |
| 20260502103055 | 69 | 23 | 1.0 | 7.0 | 0.00 | 0.00 | 0.00 | 60 | 1020.7 |
| 20260502101556 | 69 | 74 | 3.0 | 7.0 | 0.00 | 0.00 | 0.00 | 58 | 1020.9 |
| 20260502071513 | 59 | 58 | 2.0 | 4.0 | 0.00 | 0.00 | 0.00 | 68 | 1022.2 |
| 20260502070016 | 59 | 74 | 0.0 | 3.0 | 0.00 | 0.00 | 0.00 | 70 | 1022.3 |
| 20260502064508 | 58 | 76 | 1.0 | 3.0 | 0.00 | 0.00 | 0.00 | 67 | 1022.3 |
| 20260502063005 | 59 | 220 | 1.0 | 2.0 | 0.00 | 0.00 | 0.00 | 66 | 1022.3 |
| 20260502061601 | 57 | 220 | 0.0 | 0.0 | 0.00 | 0.00 | 0.00 | 65 | 1022.4 |